Avoca, PA

4:58 PM EST on November 16, 2019 (GMT -0500)
Wilkes-Barre-Scranton International

Weather History for KAVP - September, 2019

Change the Weather History Date:

Tuesday, September 24, 2019

  Actual Average Record
Temperature  
Mean Temperature 63 °F 59 °F  
Max Temperature 72 °F 69 °F 91 °F (2017)
Min Temperature 53 °F 49 °F 30 °F (1974)
Degree Days  
Heating Degree Days 2 7  
Month to date heating degree days 22 88  
Since 1 July heating degree days 23 114  
Cooling Degree Days 0 1  
Month to date cooling degree days 81 48  
Year to date cooling degree days 820 572  
Growing Degree Days 13 (Base 50)    
Moisture  
Dew Point 54 °F    
Average Humidity 69    
Maximum Humidity 93    
Minimum Humidity 44    
Precipitation  
Precipitation 0.00 in 0.13 in 1.72 in (2001)
Month to date precipitation 0.79 3.22  
Year to date precipitation 38.45 28.25  
Sea Level Pressure  
Sea Level Pressure 29.85 in    
Wind  
Wind Speed 6 mph (WSW)    
Max Wind Speed 14 mph    
Max Gust Speed 21 mph    
Visibility 9 miles    
Events      
T = Trace of Precipitation, MM = Missing Value Source: NWS Daily Summary

Daily Weather History Graph

Daily Weather History Graph

Search for Another Location

Airport or City:

Astronomy

Sep. 24, 2019 Rise Set
Actual Time 6:52 AM EDT 6:57 PM EDT
Civil Twilight 6:24 AM EDT 7:24 PM EDT
Nautical Twilight 5:52 AM EDT 7:56 PM EDT
Astronomical Twilight 5:19 AM EDT 8:29 PM EDT
Moon 1:30 AM EDT (9/24) 4:44 PM EDT (9/24)
Length of Visible Light 13h 00m
Length of Day
12h 04m
Waning Crescent, 23% of the Moon is Illuminated
Sep 24
Waning Crescent
Sep 28
New
Oct 5
First Quarter
Oct 13
Full
Oct 21
Last Quarter

Hourly Weather History & Observations

Time (EDT) Temp. Dew Point Humidity Pressure Visibility Wind Dir Wind Speed Gust Speed Precip Events Conditions
12:54 AM 64.0 °F 62.1 °F 93% 29.81 in 9.0 mi WSW 5.8 mph - N/A   Partly Cloudy
1:54 AM 63.0 °F 61.0 °F 93% 29.81 in 10.0 mi WSW 5.8 mph - N/A   Clear
2:54 AM 61.0 °F 57.9 °F 90% 29.80 in 10.0 mi SW 5.8 mph - N/A   Clear
3:54 AM 59.0 °F 57.0 °F 93% 29.79 in 9.0 mi Calm Calm - N/A   Clear
4:54 AM 59.0 °F 55.9 °F 90% 29.80 in 10.0 mi Calm Calm - N/A   Clear
5:54 AM 59.0 °F 55.9 °F 90% 29.81 in 9.0 mi SW 3.5 mph - N/A   Clear
6:36 AM 59.0 °F 57.0 °F 93% 29.84 in 8.0 mi South 3.5 mph - N/A   Scattered Clouds
6:46 AM 59.0 °F 57.0 °F 93% 29.84 in 7.0 mi SSW 4.6 mph - N/A   Mostly Cloudy
6:54 AM 59.0 °F 57.0 °F 93% 29.83 in 5.0 mi SSW 4.6 mph - N/A   Overcast
7:16 AM 59.0 °F 57.0 °F 93% 29.85 in 6.0 mi SW 5.8 mph - N/A   Scattered Clouds
7:54 AM 60.1 °F 57.9 °F 93% 29.83 in 8.0 mi SSW 5.8 mph - N/A   Mostly Cloudy
9:54 AM 62.1 °F 57.0 °F 84% 29.86 in 10.0 mi SSW 4.6 mph - N/A   Overcast
10:18 AM 63.0 °F 57.0 °F 81% 29.87 in 10.0 mi SW 5.8 mph - N/A   Overcast
10:54 AM 64.0 °F 57.0 °F 78% 29.86 in 10.0 mi SW 4.6 mph - N/A   Overcast
11:54 AM 66.0 °F 54.0 °F 65% 29.87 in 10.0 mi WNW 8.1 mph - N/A   Overcast
12:54 PM 69.1 °F 52.0 °F 54% 29.86 in 10.0 mi WNW 10.4 mph - N/A   Overcast
1:54 PM 70.0 °F 52.0 °F 53% 29.85 in 10.0 mi WNW 8.1 mph - N/A   Mostly Cloudy
2:54 PM 71.1 °F 48.9 °F 45% 29.84 in 10.0 mi NW 12.7 mph - N/A   Mostly Cloudy
3:54 PM 71.1 °F 50.0 °F 47% 29.83 in 10.0 mi NNW 11.5 mph - N/A   Mostly Cloudy
4:54 PM 71.1 °F 48.0 °F 44% 29.84 in 10.0 mi West 13.8 mph - N/A   Mostly Cloudy
5:54 PM 70.0 °F 48.0 °F 46% 29.85 in 10.0 mi NW 11.5 mph 17.3 mph N/A   Mostly Cloudy
6:54 PM 66.0 °F 48.9 °F 54% 29.86 in 10.0 mi NNW 8.1 mph - N/A   Scattered Clouds
7:54 PM 62.1 °F 50.0 °F 65% 29.88 in 10.0 mi North 6.9 mph - N/A   Clear
8:54 PM 57.0 °F 52.0 °F 83% 29.89 in 10.0 mi Calm Calm - N/A   Clear
9:54 PM 54.0 °F 51.1 °F 90% 29.90 in 10.0 mi Calm Calm - N/A   Clear
10:54 PM 55.0 °F 50.0 °F 83% 29.91 in 10.0 mi ESE 5.8 mph - N/A   Clear
11:54 PM 55.0 °F 50.0 °F 83% 29.90 in 10.0 mi ESE 4.6 mph - N/A   Clear